[[{"header":{"parameterUnit":"m.s-1","parameterCategory":1,"la1":30.2991,"la2":30.254,"lo1":-89.0895,"lo2":-89.0444,"dy":0.0017,"dx":0.0017,"nx":28,"ny":28,"refTime":"2025-06-20T03:00:00:Z","depth":0,"parameterNumber":2,"parameterNumberName":"U-component_of_WINDS"},"data":[0,0,0,0,0,0,0,0,0,0,0,0,0,0,0,0,0,0,0,0,0,0,0,0,0,0,0,0,0,0,0,0,0,0,0,0,0,0,0,0,0,0,0,0,0,0,0,0,0,0,0,0,0,0,0,0,0,0,3.0918,3.0918,0,3.0989,3.099,3.0991,3.0939,3.0937,3.0934,3.0932,3.1004,3.1008,3.1012,0,0,0,0,0,0,0,0,0,0,0,0,0,3.0732,3.0735,3.0917,3.0918,3.0919,3.0989,3.099,3.0991,3.0939,3.0936,3.0934,3.0931,3.1003,3.1008,3.1013,0,0,0,0,0,0,0,0,0,0,0,0,0,3.0809,3.0737,3.0917,3.0902,3.0901,3.0989,3.099,3.0991,3.094,3.0936,3.0933,3.093,3.1001,3.1007,3.1013,3.112,0,0,3.1032,3.1034,0,0,0,0,0,0,0,0,3.0805,3.0816,3.0903,3.0903,3.0902,3.0952,3.0951,3.1034,3.0941,3.0925,3.0932,3.0928,3.0989,3.0996,3.1017,3.1123,3.1126,3.1032,3.1036,3.1039,3.104,0,0,0,0,0,0,0,3.0799,3.0812,3.0946,3.0905,3.0904,3.089,3.0897,3.0967,3.0976,3.0926,3.0923,3.0932,3.0989,3.1012,3.1019,3.1127,3.1032,3.1038,3.1041,3.1044,3.1321,3.1324,0,0,0,0,0,0,3.0796,3.0808,3.0944,3.0948,3.0844,3.0896,3.0904,3.0939,3.0975,3.0977,3.0935,3.0929,3.1003,3.1012,3.1021,3.1145,3.1039,3.1044,3.1048,3.1317,3.1321,3.1325,0,0,0,0,0,0,3.0792,3.0808,3.0941,3.0877,3.0893,3.0903,3.0943,3.0943,3.0965,3.0981,3.0982,3.0957,3.1,3.1012,3.1095,3.1147,3.1047,3.1053,3.1312,3.1318,3.1323,3.1397,0,0,0,0,0,0,3.0787,3.0807,3.0849,3.0879,3.0897,3.1015,3.0946,3.0946,3.0976,3.097,3.1002,3.1004,3.0999,3.1086,3.1101,3.1154,3.1057,3.1308,3.1315,3.1322,3.139,3.1404,3.1416,0,0,0,0,0,3.078,3.0867,3.0851,3.0868,3.0949,3.1018,3.1028,3.102,3.0981,3.1022,3.1031,3.1003,3.114,3.1095,3.1111,3.1167,3.1304,3.1313,3.1321,3.1384,3.1401,3.1416,0,0,0,0,0,0,3.0843,3.0871,3.0854,3.0953,3.0983,3.1009,3.106,3.104,3.1082,3.1074,3.1062,3.107,3.1155,3.117,3.112,3.127,3.1215,3.1227,3.1257,3.1274,3.1287,3.1281,3.1062,0,0,0,0,0,3.0869,3.0923,3.0944,3.1029,3.1046,3.1051,3.108,3.1072,3.1103,3.1115,3.1131,3.1162,3.1211,3.1244,3.129,3.1392,3.1396,3.1438,3.1451,3.1462,3.1472,3.1523,3.1541,3.1353,3.1353,3.1352,0,0,3.0922,3.0943,3.0979,3.1043,3.1065,3.112,3.1062,3.1124,3.1164,3.1124,3.1202,3.1215,3.1248,3.134,3.1381,3.1354,3.1525,3.1473,3.1481,3.1485,3.1534,3.1551,3.1567,3.1358,3.1357,3.1356,0,0,3.1046,3.1069,3.1141,3.1165,3.12,3.1202,3.1219,3.1248,3.1255,3.1333,3.1304,3.1351,3.1438,3.1461,3.1485,3.1616,3.159,3.1631,3.17,3.1751,3.1766,3.1779,3.1822,3.1839,3.1641,3.1642,3.1642,0,3.1107,3.119,3.1181,3.1244,3.1271,3.1238,3.131,3.1333,3.1382,3.1401,3.137,3.1476,3.1496,3.1591,3.1623,3.1644,3.1661,3.1627,3.1764,3.1777,3.1789,3.1831,3.1848,3.1646,3.1646,3.1645,3.1645,0,3.1262,3.132,3.1373,3.142,3.1454,3.1522,3.1521,3.1556,3.1544,3.1549,3.1628,3.1651,3.17,3.1722,3.1712,3.1815,3.1797,3.1766,3.1711,3.1812,3.1851,3.1867,3.1653,3.1651,3.165,3.1649,0,0,3.1427,3.1467,3.1487,3.1506,3.1542,3.1586,3.165,3.1698,3.1727,3.1762,3.1814,3.1886,3.1857,3.1884,3.1875,3.192,3.2018,3.1882,3.1883,3.1904,3.213,3.2151,3.217,3.2002,3.2005,3.2008,3.2126,0,3.1551,3.1664,3.1657,3.1762,3.1814,3.1782,3.1838,3.1865,3.1871,3.1915,3.1921,3.1972,3.1931,3.1946,3.1989,3.1997,3.2063,3.1989,3.2048,3.205,3.2038,3.2191,3.2214,3.2325,3.2142,3.2144,3.2146,0,3.1711,3.1749,3.186,3.1885,3.1906,3.1957,3.1998,3.2042,3.207,3.2071,3.21,3.2084,3.2147,3.2091,3.2177,3.2126,3.215,3.2158,3.2162,3.2165,3.2103,3.2196,3.2361,3.2376,3.217,3.2168,3.2167,0,3.1816,3.1897,3.1972,3.199,3.2022,3.2058,3.2073,3.2098,3.2127,3.2163,3.2181,3.2225,3.2248,3.2282,3.2276,3.2237,3.2362,3.2307,3.2363,3.2363,3.2389,3.2387,3.2557,3.2409,3.2409,3.2408,3.2408,0,3.1954,3.2022,3.202,3.2066,3.2141,3.2131,3.2205,3.2215,3.2238,3.2284,3.2261,3.2305,3.2296,3.234,3.2336,3.2405,3.2417,3.2418,3.2416,3.2419,3.2418,3.2432,3.2424,3.2413,3.2412,3.2411,3.241,0,3.2084,3.2086,3.2166,3.2189,3.2196,3.225,3.2269,3.2312,3.2316,3.2375,3.2388,3.2394,3.2443,3.2442,3.2498,3.2496,3.258,3.257,3.257,3.2567,3.2622,3.2615,3.2805,3.2828,3.2668,3.2669,3.267,0,3.2171,3.2222,3.225,3.228,3.2297,3.2345,3.2373,3.2366,3.2396,3.2431,3.2469,3.2517,3.2554,3.2634,3.2642,3.2685,3.2674,3.2738,3.268,3.268,3.2671,3.2667,3.2671,3.2748,3.275,3.2751,3.2753,0,3.2323,3.232,3.2363,3.2405,3.244,3.2472,3.2502,3.2528,3.2523,3.2558,3.2608,3.2637,3.2694,3.274,3.278,3.2794,3.2772,3.2771,3.2785,3.2788,3.2784,3.2784,3.2598,3.2766,3.2765,3.2764,3.2763,3.2762,3.2432,3.2475,3.2501,3.2548,3.257,3.2598,3.2638,3.2647,3.2688,3.2734,3.2727,3.2782,3.2807,3.2859,3.2876,3.2918,3.2895,3.2917,3.2922,3.2927,3.2932,3.278,3.2926,3.2925,3.2925,3.2925,3.2924,0,3.258,3.2595,3.2638,3.268,3.2717,3.2694,3.2725,3.2757,3.2806,3.2832,3.2868,3.2924,3.2969,3.298,3.3022,3.3053,3.3044,3.3064,3.3061,3.3064,3.2951,3.2933,3.3071,3.3071,3.3071,3.3071,3.3071,3.3071,3.2661,3.2732,3.2732,3.2812,3.2827,3.2881,3.29,3.2925,3.2945,3.3009,3.3045,3.3053,3.3072,3.3115,3.3153,3.3155,3.3171,3.3195,3.3192,3.3087,3.3072,3.3058,3.304,3.3199,3.3199,3.3301,3.3302,3.3302]},{"header":{"parameterUnit":"m.s-1","parameterCategory":1,"la1":30.2991,"la2":30.254,"lo1":-89.0895,"lo2":-89.0444,"dy":0.0017,"dx":0.0017,"nx":28,"ny":28,"refTime":"2025-06-20T03:00:00:Z","depth":0,"parameterNumber":3,"parameterNumberName":"V-component_of_WINDS"},"data":[0,0,0,0,0,0,0,0,0,0,0,0,0,0,0,0,0,0,0,0,0,0,0,0,0,0,0,0,0,0,0,0,0,0,0,0,0,0,0,0,0,0,0,0,0,0,0,0,0,0,0,0,0,0,0,0,0,0,2.0099,2.01,0,2.0163,2.0164,2.0164,2.0156,2.0154,2.0153,2.0152,2.0215,2.0217,2.022,0,0,0,0,0,0,0,0,0,0,0,0,0,1.9966,1.9969,2.0099,2.01,2.0101,2.0163,2.0164,2.0164,2.0156,2.0154,2.0153,2.0152,2.0214,2.0217,2.022,0,0,0,0,0,0,0,0,0,0,0,0,0,2.0026,1.997,2.0099,2.0104,2.0105,2.0163,2.0164,2.0165,2.0156,2.0154,2.0153,2.0151,2.0213,2.0217,2.0221,2.0276,0,0,2.0233,2.0234,0,0,0,0,0,0,0,0,2.0023,2.0031,2.0103,2.0104,2.0105,2.015,2.014,2.0202,2.0156,2.0137,2.0152,2.0151,2.0194,2.02,2.0215,2.0279,2.0282,2.0233,2.0235,2.0237,2.0238,0,0,0,0,0,0,0,2.0019,2.0028,2.0124,2.0104,2.0105,2.0102,2.0109,2.0151,2.0173,2.0138,2.0138,2.0145,2.0195,2.0211,2.0216,2.0283,2.0233,2.0236,2.0239,2.024,2.0394,2.0396,0,0,0,0,0,0,2.0014,2.0025,2.0122,2.0126,2.0059,2.0105,2.0113,2.0137,2.0173,2.0177,2.0147,2.0145,2.0205,2.0212,2.0218,2.0285,2.0237,2.0241,2.0243,2.0392,2.0394,2.0396,0,0,0,0,0,0,2.0011,2.0023,2.012,2.0076,2.0088,2.0109,2.0136,2.0139,2.0156,2.0179,2.0183,2.016,2.0204,2.0213,2.0262,2.0287,2.0243,2.0246,2.039,2.0393,2.0395,2.0419,0,0,0,0,0,0,2.0007,2.0022,2.0044,2.0076,2.009,2.0163,2.0138,2.0141,2.0163,2.0161,2.0193,2.0196,2.0204,2.0256,2.0266,2.0291,2.0249,2.0388,2.0391,2.0394,2.0416,2.0422,2.0427,0,0,0,0,0,2.0003,2.0048,2.0045,2.0057,2.0119,2.0165,2.0173,2.0181,2.0165,2.0187,2.0202,2.0195,2.0283,2.0261,2.0272,2.0299,2.0387,2.039,2.0394,2.0413,2.0421,2.0427,0,0,0,0,0,0,2.0018,2.0053,2.005,2.0107,2.0133,2.0163,2.0192,2.0189,2.0219,2.0216,2.0224,2.0231,2.028,2.0295,2.027,2.0354,2.0332,2.0338,2.0343,2.035,2.0355,2.0351,2.0253,0,0,0,0,0,2.0028,2.0064,2.0092,2.014,2.0153,2.017,2.019,2.0194,2.0221,2.0232,2.025,2.0276,2.0308,2.033,2.0362,2.0418,2.0423,2.0442,2.0447,2.0452,2.0457,2.0485,2.0493,2.0409,2.0409,2.0409,0,0,2.005,2.0073,2.0095,2.0143,2.0164,2.0199,2.0179,2.0218,2.0243,2.0237,2.0285,2.0299,2.0327,2.038,2.0404,2.0393,2.0481,2.0457,2.046,2.0463,2.049,2.0498,2.0505,2.0411,2.0411,2.041,0,0,2.0106,2.0128,2.017,2.0191,2.0222,2.0233,2.0243,2.0273,2.0282,2.033,2.0326,2.0355,2.0413,2.0433,2.045,2.0513,2.0507,2.0523,2.0551,2.0579,2.0586,2.0592,2.0612,2.062,2.0528,2.0528,2.0528,0,2.0129,2.0183,2.0191,2.023,2.0251,2.0247,2.0288,2.0308,2.0347,2.0361,2.0349,2.0419,2.0439,2.0494,2.0509,2.0524,2.0534,2.0519,2.0584,2.059,2.0596,2.0616,2.0624,2.0529,2.0529,2.0529,2.0529,0,2.0208,2.0245,2.0275,2.0314,2.0337,2.0377,2.039,2.0413,2.0414,2.0426,2.0473,2.0496,2.0531,2.0545,2.0547,2.0601,2.0593,2.0583,2.0561,2.0605,2.0624,2.0632,2.0532,2.0531,2.0531,2.053,0,0,2.0277,2.0319,2.033,2.0346,2.038,2.0408,2.0447,2.0482,2.0501,2.0528,2.0559,2.0607,2.0597,2.0617,2.0621,2.0645,2.0691,2.0632,2.0632,2.0641,2.0749,2.0756,2.0765,2.0688,2.0689,2.069,2.0747,0,2.0336,2.0405,2.0413,2.0474,2.0508,2.0504,2.0537,2.056,2.0572,2.0601,2.0613,2.0646,2.0631,2.0643,2.0667,2.068,2.0713,2.0676,2.0715,2.0717,2.0708,2.0775,2.0783,2.0835,2.0754,2.0755,2.0756,0,2.0414,2.0444,2.0508,2.0535,2.055,2.058,2.0612,2.064,2.0665,2.0672,2.0693,2.0693,2.0731,2.0708,2.0759,2.0735,2.0751,2.0759,2.0762,2.0765,2.0739,2.0779,2.0852,2.0859,2.0768,2.0767,2.0766,0,2.0456,2.0512,2.0557,2.0572,2.0605,2.0626,2.0641,2.0665,2.0685,2.0712,2.0725,2.0756,2.0773,2.0797,2.0804,2.0787,2.0855,2.0833,2.086,2.0859,2.0874,2.0872,2.0949,2.0886,2.0886,2.0885,2.0885,0,2.0521,2.056,2.0576,2.0604,2.0647,2.0655,2.0697,2.0711,2.0732,2.0761,2.076,2.0787,2.0796,2.0824,2.083,2.0871,2.0879,2.0883,2.0884,2.0883,2.0882,2.0893,2.089,2.0888,2.0887,2.0887,2.0886,0,2.0575,2.0588,2.0637,2.0664,2.0672,2.0702,2.0725,2.0751,2.0761,2.0798,2.0807,2.0823,2.0856,2.0866,2.0906,2.091,2.0957,2.0955,2.0948,2.0948,2.0974,2.0971,2.106,2.1071,2.1001,2.1002,2.1002,0,2.0615,2.0645,2.0675,2.0695,2.0711,2.0743,2.0763,2.0771,2.0792,2.0822,2.0844,2.0877,2.0903,2.0956,2.097,2.1,2.0998,2.1027,2.1002,2.0999,2.0997,2.0994,2.0997,2.1031,2.1032,2.1033,2.1033,0,2.0684,2.0688,2.0718,2.075,2.0774,2.0799,2.0824,2.084,2.0851,2.0874,2.0908,2.0929,2.0969,2.1,2.103,2.1044,2.104,2.1041,2.1048,2.1047,2.1041,2.1043,2.096,2.1039,2.1038,2.1038,2.1037,2.1037,2.0732,2.0757,2.0782,2.0815,2.0834,2.0856,2.0882,2.0895,2.0924,2.0957,2.096,2.0996,2.1019,2.1059,2.1074,2.1101,2.1092,2.1104,2.1106,2.1109,2.111,2.1038,2.1106,2.1106,2.1106,2.1106,2.1106,0,2.0799,2.0815,2.0845,2.0879,2.0904,2.0899,2.0925,2.0946,2.0978,2.1,2.1026,2.1063,2.1094,2.111,2.114,2.1158,2.1157,2.1166,2.1164,2.1167,2.1117,2.1107,2.1166,2.1166,2.1166,2.1166,2.1166,2.1166,2.0837,2.088,2.0888,2.0939,2.0954,2.099,2.1005,2.1025,2.1042,2.1085,2.111,2.1121,2.114,2.1171,2.1198,2.1202,2.1212,2.1221,2.1224,2.1177,2.1171,2.1165,2.1155,2.1224,2.1224,2.1272,2.1272,2.1272]}]]